Time,TemperatureF,DewpointF,PressureIn,WindDirection,WindDirectionDegrees,WindSpeedMPH,WindSpeedGustMPH,Humidity,HourlyPrecipIn,Conditions,Clouds,dailyrainin,SoftwareType,DateUTC
2013-06-10 00:00:00,59.4,56.2,29.78,East,90,2.0,10.0,89,0.00,,FEW250,0.00,VWS V14.01,2013-06-10 05:00:00,
2013-06-10 00:02:00,59.2,56.0,29.78,East,94,10.0,10.0,89,0.00,,,0.00,VWS V14.01,2013-06-10 05:02:00,
2013-06-10 00:05:00,59.2,56.0,29.78,East,90,1.0,10.0,89,0.00,,FEW250,0.00,VWS V14.01,2013-06-10 05:05:00,
2013-06-10 00:07:00,59.1,55.9,29.78,East,97,11.0,13.0,89,0.00,,,0.00,VWS V14.01,2013-06-10 05:07:00,
2013-06-10 00:10:00,59.1,55.9,29.78,East,94,0.0,13.0,89,0.00,,FEW250,0.00,VWS V14.01,2013-06-10 05:10:00,
2013-06-10 00:12:00,59.1,55.9,29.78,East,84,6.0,9.0,89,0.00,,,0.00,VWS V14.01,2013-06-10 05:12:00,
2013-06-10 00:15:00,59.1,55.9,29.78,East,93,1.0,9.0,89,0.00,,FEW250,0.00,VWS V14.01,2013-06-10 05:15:00,
2013-06-10 00:17:00,59.0,55.8,29.78,East,92,0.0,8.0,89,0.00,,,0.00,VWS V14.01,2013-06-10 05:17:00,
2013-06-10 00:20:00,59.0,55.8,29.78,East,94,0.0,6.0,89,0.00,,FEW250,0.00,VWS V14.01,2013-06-10 05:20:00,
2013-06-10 00:22:00,59.0,55.8,29.77,SSE,148,5.0,6.0,89,0.00,,,0.00,VWS V14.01,2013-06-10 05:22:00,
2013-06-10 00:25:00,58.9,55.7,29.77,SE,132,0.0,7.0,89,0.00,,FEW250,0.00,VWS V14.01,2013-06-10 05:25:00,
2013-06-10 00:27:00,58.9,55.7,29.77,ESE,121,0.0,6.0,89,0.00,,,0.00,VWS V14.01,2013-06-10 05:27:00,
2013-06-10 00:30:00,58.8,55.6,29.77,SSE,153,0.0,6.0,89,0.00,,FEW250,0.00,VWS V14.01,2013-06-10 05:30:00,
2013-06-10 00:32:00,58.7,55.5,29.77,SE,133,0.0,2.0,89,0.00,,,0.00,VWS V14.01,2013-06-10 05:32:00,
2013-06-10 00:35:00,58.7,55.5,29.77,SE,146,0.0,2.0,89,0.00,,FEW250,0.00,VWS V14.01,2013-06-10 05:35:00,
2013-06-10 00:38:00,58.7,55.5,29.77,South,170,0.0,3.0,89,0.00,,,0.00,VWS V14.01,2013-06-10 05:38:00,
2013-06-10 00:40:00,58.7,55.5,29.77,South,170,0.0,3.0,89,0.00,,FEW250,0.00,VWS V14.01,2013-06-10 05:40:00,
2013-06-10 00:43:00,58.5,55.3,29.77,South,170,0.0,0.0,89,0.00,,,0.00,VWS V14.01,2013-06-10 05:43:00,
2013-06-10 00:45:00,58.5,55.3,29.77,South,170,0.0,0.0,89,0.00,,FEW250,0.00,VWS V14.01,2013-06-10 05:45:00,
2013-06-10 00:48:00,58.5,55.6,29.77,ENE,65,0.0,9.0,90,0.00,,,0.00,VWS V14.01,2013-06-10 05:48:00,
2013-06-10 00:50:00,58.5,55.6,29.77,SE,139,0.0,9.0,90,0.00,,FEW250,0.00,VWS V14.01,2013-06-10 05:50:00,
2013-06-10 00:53:00,58.5,55.3,29.76,SE,139,0.0,0.0,89,0.00,,,0.00,VWS V14.01,2013-06-10 05:53:00,
2013-06-10 00:55:00,58.5,55.3,29.76,SE,139,0.0,0.0,89,0.00,,FEW250,0.00,VWS V14.01,2013-06-10 05:55:00,
2013-06-10 00:58:00,58.2,55.0,29.76,East,84,0.0,5.0,89,0.00,,,0.00,VWS V14.01,2013-06-10 05:58:00,
2013-06-10 01:00:00,58.2,55.0,29.76,NNW,331,1.0,5.0,89,0.00,,FEW250,0.00,VWS V14.01,2013-06-10 06:00:00,
2013-06-10 01:03:00,58.1,54.9,29.76,ESE,120,0.0,5.0,89,0.00,,,0.00,VWS V14.01,2013-06-10 06:03:00,
2013-06-10 01:05:00,58.1,54.9,29.76,ESE,120,0.0,5.0,89,0.00,,FEW250,0.00,VWS V14.01,2013-06-10 06:05:00,
2013-06-10 01:08:00,58.1,55.2,29.76,East,86,3.0,13.0,90,0.00,,,0.00,VWS V14.01,2013-06-10 06:08:00,
2013-06-10 01:10:00,58.1,55.2,29.76,East,86,0.0,13.0,90,0.00,,FEW250,0.00,VWS V14.01,2013-06-10 06:10:00,
2013-06-10 01:13:00,58.8,55.9,29.76,ESE,113,2.0,12.0,90,0.00,,,0.00,VWS V14.01,2013-06-10 06:13:00,
2013-06-10 01:15:00,58.8,55.9,29.76,ESE,113,2.0,12.0,90,0.00,,FEW250,0.00,VWS V14.01,2013-06-10 06:15:00,
2013-06-10 01:18:00,59.1,55.5,29.76,ESE,109,13.0,14.0,88,0.00,,,0.00,VWS V14.01,2013-06-10 06:18:00,
2013-06-10 01:20:00,59.1,55.6,29.76,ESE,109,13.0,14.0,88,0.00,,FEW250,0.00,VWS V14.01,2013-06-10 06:20:00,
2013-06-10 01:23:00,59.4,55.8,29.76,SSE,165,0.0,6.0,88,0.00,,,0.00,VWS V14.01,2013-06-10 06:23:00,
2013-06-10 01:25:00,59.4,55.8,29.76,SSE,165,0.0,6.0,88,0.00,,FEW250,0.00,VWS V14.01,2013-06-10 06:25:00,
2013-06-10 01:28:00,59.3,55.4,29.76,ESE,123,0.0,7.0,87,0.00,,,0.00,VWS V14.01,2013-06-10 06:28:00,
2013-06-10 01:30:00,59.3,55.4,29.76,ESE,123,0.0,7.0,87,0.00,,FEW250,0.00,VWS V14.01,2013-06-10 06:30:00,
2013-06-10 01:33:00,59.0,55.5,29.75,ESE,116,3.0,10.0,88,0.00,,,0.00,VWS V14.01,2013-06-10 06:33:00,
2013-06-10 01:35:00,59.0,55.5,29.75,ESE,116,3.0,10.0,88,0.00,,FEW250,0.00,VWS V14.01,2013-06-10 06:35:00,
2013-06-10 01:38:00,59.3,56.1,29.76,South,184,4.0,12.0,89,0.00,,,0.00,VWS V14.01,2013-06-10 06:38:00,
2013-06-10 01:40:00,59.3,56.1,29.76,South,184,4.0,12.0,89,0.00,,FEW250,0.00,VWS V14.01,2013-06-10 06:40:00,
2013-06-10 01:43:00,59.5,56.0,29.76,South,177,1.0,4.0,88,0.00,,,0.00,VWS V14.01,2013-06-10 06:43:00,
2013-06-10 01:45:00,59.5,56.0,29.76,South,177,1.0,4.0,88,0.00,,FEW250,0.00,VWS V14.01,2013-06-10 06:45:00,
2013-06-10 01:48:00,59.3,55.8,29.76,SE,129,0.0,6.0,88,0.00,,,0.00,VWS V14.01,2013-06-10 06:48:00,
2013-06-10 01:50:00,59.3,55.8,29.76,SE,129,0.0,6.0,88,0.00,,FEW250,0.00,VWS V14.01,2013-06-10 06:50:00,
2013-06-10 01:53:00,59.1,55.5,29.76,SE,140,1.0,4.0,88,0.00,,,0.00,VWS V14.01,2013-06-10 06:53:00,
2013-06-10 01:55:00,59.1,55.6,29.76,SE,140,1.0,4.0,88,0.00,,FEW250,0.00,VWS V14.01,2013-06-10 06:55:00,
2013-06-10 01:58:00,58.9,55.4,29.76,ESE,122,1.0,3.0,88,0.00,,,0.00,VWS V14.01,2013-06-10 06:58:00,
2013-06-10 02:00:00,58.9,55.4,29.76,ESE,122,1.0,3.0,88,0.00,,FEW250,0.00,VWS V14.01,2013-06-10 07:00:00,
2013-06-10 02:04:00,58.6,55.1,29.76,ESE,113,0.0,3.0,88,0.00,,-RA,0.00,VWS V14.01,2013-06-10 07:04:00,
2013-06-10 02:05:00,58.6,55.1,29.76,ESE,103,1.0,3.0,88,0.00,,CLR,0.00,VWS V14.01,2013-06-10 07:05:00,
2013-06-10 02:09:00,58.3,55.1,29.75,ESE,113,0.0,1.0,89,0.00,,-RA,0.00,VWS V14.01,2013-06-10 07:09:00,
2013-06-10 02:10:00,58.4,55.2,29.76,ESE,113,0.0,1.0,89,0.00,,FEW250,0.00,VWS V14.01,2013-06-10 07:10:00,
2013-06-10 02:14:00,58.1,54.9,29.75,ESE,113,0.0,0.0,89,0.00,,-RA,0.00,VWS V14.01,2013-06-10 07:14:00,
2013-06-10 02:15:00,58.2,55.0,29.75,ESE,113,0.0,0.0,89,0.00,,FEW250,0.00,VWS V14.01,2013-06-10 07:15:00,
2013-06-10 02:19:00,58.1,55.2,29.75,SE,125,0.0,0.0,90,0.00,,-RA,0.00,VWS V14.01,2013-06-10 07:19:00,
2013-06-10 02:20:00,58.1,54.9,29.75,SE,125,0.0,0.0,89,0.00,,FEW250,0.00,VWS V14.01,2013-06-10 07:20:00,
2013-06-10 02:25:00,58.0,55.1,29.75,SE,125,0.0,0.0,90,0.00,,-RA,0.00,VWS V14.01,2013-06-10 07:25:00,
2013-06-10 02:30:00,57.9,55.0,29.74,SE,125,0.0,0.0,90,0.00,,-RA,0.00,VWS V14.01,2013-06-10 07:30:00,
2013-06-10 02:35:00,57.7,54.8,29.74,SE,125,0.0,0.0,90,0.00,,-RA,0.00,VWS V14.01,2013-06-10 07:35:00,
2013-06-10 02:40:00,57.6,55.0,29.74,SE,125,0.0,0.0,91,0.00,,-RA,0.00,VWS V14.01,2013-06-10 07:40:00,
2013-06-10 02:45:00,57.5,54.9,29.73,SE,125,0.0,0.0,91,0.00,,-RA,0.00,VWS V14.01,2013-06-10 07:45:00,
2013-06-10 02:50:00,57.5,54.9,29.73,NNE,32,0.0,0.0,91,0.00,,-RA,0.00,VWS V14.01,2013-06-10 07:50:00,
2013-06-10 02:55:00,57.5,55.2,29.73,NNE,32,0.0,0.0,92,0.00,,-RA,0.00,VWS V14.01,2013-06-10 07:55:00,
2013-06-10 03:00:00,57.4,55.1,29.73,NNE,32,0.0,0.0,92,0.00,,-RA,0.00,VWS V14.01,2013-06-10 08:00:00,
2013-06-10 03:05:00,57.3,55.0,29.73,NE,40,2.0,2.0,92,0.00,,,0.00,VWS V14.01,2013-06-10 08:05:00,
2013-06-10 03:10:00,57.2,54.9,29.73,NE,44,1.0,4.0,92,0.00,,FEW250,0.00,VWS V14.01,2013-06-10 08:10:00,
2013-06-10 03:11:00,57.1,54.8,29.73,NE,35,0.0,4.0,92,0.00,,,0.00,VWS V14.01,2013-06-10 08:11:00,
2013-06-10 03:15:00,56.9,54.6,29.73,NE,38,0.0,4.0,92,0.00,,FEW250,0.00,VWS V14.01,2013-06-10 08:15:00,
2013-06-10 03:16:00,56.8,54.5,29.73,NE,38,0.0,0.0,92,0.00,,,0.00,VWS V14.01,2013-06-10 08:16:00,
2013-06-10 03:20:00,56.8,54.5,29.73,East,80,6.0,6.0,92,0.00,,FEW250,0.00,VWS V14.01,2013-06-10 08:20:00,
2013-06-10 03:21:00,56.6,54.3,29.74,ENE,66,4.0,9.0,92,0.00,,,0.00,VWS V14.01,2013-06-10 08:21:00,
2013-06-10 03:25:00,56.2,53.9,29.74,NNE,28,6.0,9.0,92,0.00,,FEW250,0.00,VWS V14.01,2013-06-10 08:25:00,
2013-06-10 03:26:00,56.0,53.7,29.73,NNE,25,0.0,9.0,92,0.00,,,0.00,VWS V14.01,2013-06-10 08:26:00,
2013-06-10 03:30:00,55.8,53.5,29.73,NNE,22,0.0,5.0,92,0.00,,FEW250,0.00,VWS V14.01,2013-06-10 08:30:00,
2013-06-10 03:31:00,55.7,53.7,29.73,NE,36,0.0,0.0,93,0.00,,,0.00,VWS V14.01,2013-06-10 08:31:00,
2013-06-10 03:35:00,55.7,53.7,29.73,NE,34,0.0,0.0,93,0.00,,FEW250,0.00,VWS V14.01,2013-06-10 08:35:00,
2013-06-10 03:36:00,55.7,53.7,29.73,NE,34,0.0,0.0,93,0.00,,,0.00,VWS V14.01,2013-06-10 08:36:00,
2013-06-10 03:40:00,55.7,53.7,29.73,ENE,63,0.0,1.0,93,0.00,,FEW250,0.00,VWS V14.01,2013-06-10 08:40:00,
2013-06-10 03:41:00,55.6,53.6,29.73,ENE,72,7.0,9.0,93,0.00,,,0.00,VWS V14.01,2013-06-10 08:41:00,
2013-06-10 03:45:00,55.4,53.4,29.73,NE,38,3.0,9.0,93,0.00,,FEW250,0.00,VWS V14.01,2013-06-10 08:45:00,
2013-06-10 03:46:00,55.1,53.1,29.73,ENE,65,0.0,9.0,93,0.00,,,0.00,VWS V14.01,2013-06-10 08:46:00,
2013-06-10 03:50:00,54.9,52.9,29.73,NE,55,4.0,7.0,93,0.00,,FEW250,0.00,VWS V14.01,2013-06-10 08:50:00,
2013-06-10 03:51:00,54.8,52.8,29.73,ENE,69,0.0,5.0,93,0.00,,,0.00,VWS V14.01,2013-06-10 08:51:00,
2013-06-10 03:55:00,54.7,52.7,29.73,ENE,69,0.0,3.0,93,0.00,,FEW250,0.00,VWS V14.01,2013-06-10 08:55:00,
2013-06-10 03:56:00,54.6,52.9,29.73,ENE,69,0.0,5.0,94,0.00,,,0.00,VWS V14.01,2013-06-10 08:56:00,
2013-06-10 04:00:00,54.5,52.5,29.73,ENE,70,0.0,5.0,93,0.00,,FEW250,0.00,VWS V14.01,2013-06-10 09:00:00,
2013-06-10 04:01:00,54.5,52.8,29.73,ENE,69,0.0,0.0,94,0.00,,,0.00,VWS V14.01,2013-06-10 09:01:00,
2013-06-10 04:05:00,54.5,52.8,29.73,ENE,69,0.0,0.0,94,0.00,,FEW250,0.00,VWS V14.01,2013-06-10 09:05:00,
2013-06-10 04:07:00,54.5,52.8,29.73,ENE,70,0.0,0.0,94,0.00,,,0.00,VWS V14.01,2013-06-10 09:07:00,
2013-06-10 04:10:00,54.5,52.8,29.73,ENE,70,0.0,0.0,94,0.00,,FEW250,0.00,VWS V14.01,2013-06-10 09:10:00,
2013-06-10 04:12:00,54.5,52.8,29.73,ENE,69,0.0,1.0,94,0.00,,,0.00,VWS V14.01,2013-06-10 09:12:00,
2013-06-10 04:15:00,54.4,52.7,29.73,ENE,70,0.0,0.0,94,0.00,,FEW250,0.00,VWS V14.01,2013-06-10 09:15:00,
2013-06-10 04:17:00,54.4,53.0,29.73,ENE,70,0.0,0.0,95,0.00,,,0.00,VWS V14.01,2013-06-10 09:17:00,
2013-06-10 04:20:00,54.4,53.0,29.73,ENE,70,0.0,0.0,95,0.00,,CLR,0.00,VWS V14.01,2013-06-10 09:20:00,
2013-06-10 04:22:00,54.4,53.0,29.73,ENE,70,0.0,0.0,95,0.00,,,0.00,VWS V14.01,2013-06-10 09:22:00,
2013-06-10 04:25:00,54.4,53.0,29.73,ENE,70,0.0,0.0,95,0.00,,CLR,0.00,VWS V14.01,2013-06-10 09:25:00,
2013-06-10 04:27:00,54.5,53.1,29.73,ENE,70,0.0,0.0,95,0.00,,,0.00,VWS V14.01,2013-06-10 09:27:00,
2013-06-10 04:30:00,54.5,53.1,29.73,ENE,70,0.0,0.0,95,0.00,,FEW250,0.00,VWS V14.01,2013-06-10 09:30:00,
2013-06-10 04:32:00,54.5,53.1,29.73,ENE,70,0.0,0.0,95,0.00,,,0.00,VWS V14.01,2013-06-10 09:32:00,
2013-06-10 04:35:00,54.5,53.1,29.73,ENE,70,0.0,0.0,95,0.00,,CLR,0.00,VWS V14.01,2013-06-10 09:35:00,
2013-06-10 04:37:00,54.4,53.0,29.73,ENE,70,0.0,0.0,95,0.00,,,0.00,VWS V14.01,2013-06-10 09:37:00,
2013-06-10 04:40:00,54.4,53.0,29.73,ENE,70,0.0,0.0,95,0.00,,FEW250,0.00,VWS V14.01,2013-06-10 09:40:00,
2013-06-10 04:42:00,54.4,53.0,29.73,ENE,71,0.0,0.0,95,0.00,,,0.00,VWS V14.01,2013-06-10 09:42:00,
2013-06-10 04:45:00,54.4,53.0,29.73,ENE,70,0.0,0.0,95,0.00,,FEW250,0.00,VWS V14.01,2013-06-10 09:45:00,
2013-06-10 04:47:00,54.4,53.0,29.74,ENE,70,0.0,0.0,95,0.00,,,0.00,VWS V14.01,2013-06-10 09:47:00,
2013-06-10 04:50:00,54.4,53.0,29.74,ENE,70,0.0,0.0,95,0.00,,FEW250,0.00,VWS V14.01,2013-06-10 09:50:00,
2013-06-10 04:53:00,54.4,53.0,29.74,ENE,70,0.0,1.0,95,0.00,,,0.00,VWS V14.01,2013-06-10 09:53:00,
2013-06-10 04:55:00,54.4,53.0,29.74,ENE,70,0.0,1.0,95,0.00,,FEW250,0.00,VWS V14.01,2013-06-10 09:55:00,
2013-06-10 04:58:00,54.3,52.9,29.74,ENE,70,0.0,0.0,95,0.00,,,0.00,VWS V14.01,2013-06-10 09:58:00,
2013-06-10 05:00:00,54.3,52.9,29.74,ENE,70,0.0,0.0,95,0.00,,FEW250,0.00,VWS V14.01,2013-06-10 10:00:00,
2013-06-10 05:03:00,54.3,52.9,29.73,ENE,70,0.0,0.0,95,0.00,,,0.00,VWS V14.01,2013-06-10 10:03:00,
2013-06-10 05:05:00,54.3,52.9,29.73,ENE,70,0.0,0.0,95,0.00,,FEW250,0.00,VWS V14.01,2013-06-10 10:05:00,
2013-06-10 05:08:00,54.3,52.9,29.73,ENE,70,0.0,0.0,95,0.00,,,0.00,VWS V14.01,2013-06-10 10:08:00,
2013-06-10 05:10:00,54.3,52.9,29.73,ENE,71,0.0,0.0,95,0.00,,FEW250,0.00,VWS V14.01,2013-06-10 10:10:00,
2013-06-10 05:13:00,54.4,53.3,29.73,ENE,70,0.0,0.0,96,0.00,,,0.00,VWS V14.01,2013-06-10 10:13:00,
2013-06-10 05:15:00,54.4,53.3,29.73,ENE,70,0.0,0.0,96,0.00,,FEW250,0.00,VWS V14.01,2013-06-10 10:15:00,
2013-06-10 05:18:00,54.5,53.4,29.73,ENE,70,0.0,0.0,96,0.00,,,0.00,VWS V14.01,2013-06-10 10:18:00,
2013-06-10 05:20:00,54.5,53.4,29.73,ENE,70,0.0,0.0,96,0.00,,FEW250,0.00,VWS V14.01,2013-06-10 10:20:00,
2013-06-10 05:23:00,55.0,53.9,29.73,ENE,70,0.0,0.0,96,0.00,,,0.00,VWS V14.01,2013-06-10 10:23:00,
2013-06-10 05:25:00,55.0,53.9,29.73,ENE,70,0.0,0.0,96,0.00,,FEW250,0.00,VWS V14.01,2013-06-10 10:25:00,
2013-06-10 05:28:00,55.4,54.3,29.73,WNW,301,3.0,7.0,96,0.00,,,0.00,VWS V14.01,2013-06-10 10:28:00,
2013-06-10 05:30:00,55.4,54.3,29.73,WNW,301,3.0,7.0,96,0.00,,CLR,0.00,VWS V14.01,2013-06-10 10:30:00,
2013-06-10 05:33:00,55.4,54.3,29.73,WNW,298,0.0,5.0,96,0.00,,,0.00,VWS V14.01,2013-06-10 10:33:00,
2013-06-10 05:35:00,55.4,54.3,29.73,WNW,298,0.0,5.0,96,0.00,,CLR,0.00,VWS V14.01,2013-06-10 10:35:00,
2013-06-10 05:38:00,55.5,54.4,29.73,WNW,298,0.0,0.0,96,0.00,,,0.00,VWS V14.01,2013-06-10 10:38:00,
2013-06-10 05:40:00,55.5,54.4,29.73,WNW,298,0.0,0.0,96,0.00,,CLR,0.00,VWS V14.01,2013-06-10 10:40:00,
2013-06-10 05:43:00,55.8,54.4,29.73,WNW,298,0.0,0.0,95,0.00,,,0.00,VWS V14.01,2013-06-10 10:43:00,
2013-06-10 05:45:00,55.8,54.4,29.73,WNW,298,0.0,0.0,95,0.00,,CLR,0.00,VWS V14.01,2013-06-10 10:45:00,
2013-06-10 05:48:00,56.0,54.6,29.73,WNW,298,2.0,3.0,95,0.00,,,0.00,VWS V14.01,2013-06-10 10:48:00,
2013-06-10 05:50:00,56.0,54.6,29.73,WNW,298,2.0,3.0,95,0.00,,FEW250,0.00,VWS V14.01,2013-06-10 10:50:00,
2013-06-10 05:53:00,56.1,54.7,29.74,WNW,298,0.0,0.0,95,0.00,,,0.00,VWS V14.01,2013-06-10 10:53:00,
2013-06-10 05:55:00,56.1,54.7,29.74,WNW,298,0.0,0.0,95,0.00,,FEW250,0.00,VWS V14.01,2013-06-10 10:55:00,
2013-06-10 05:58:00,56.1,54.7,29.74,WNW,298,0.0,0.0,95,0.00,,,0.00,VWS V14.01,2013-06-10 10:58:00,
2013-06-10 06:00:00,56.1,54.7,29.74,WNW,298,0.0,0.0,95,0.00,,FEW250,0.00,VWS V14.01,2013-06-10 11:00:00,
2013-06-10 06:03:00,56.0,54.3,29.74,North,349,0.0,0.0,94,0.00,,,0.00,VWS V14.01,2013-06-10 11:03:00,
2013-06-10 06:05:00,56.0,54.3,29.74,North,349,0.0,0.0,94,0.00,,CLR,0.00,VWS V14.01,2013-06-10 11:05:00,
2013-06-10 06:08:00,55.7,54.0,29.74,NNE,12,3.0,5.0,94,0.00,,,0.00,VWS V14.01,2013-06-10 11:08:00,
2013-06-10 06:10:00,55.7,54.0,29.74,NNE,12,3.0,5.0,94,0.00,,FEW250,0.00,VWS V14.01,2013-06-10 11:10:00,
2013-06-10 06:13:00,55.5,53.8,29.74,NE,35,4.0,5.0,94,0.00,,,0.00,VWS V14.01,2013-06-10 11:13:00,
2013-06-10 06:15:00,55.5,53.8,29.74,NE,35,4.0,5.0,94,0.00,,CLR,0.00,VWS V14.01,2013-06-10 11:15:00,
2013-06-10 06:18:00,55.2,53.5,29.74,NE,56,0.0,6.0,94,0.00,,,0.00,VWS V14.01,2013-06-10 11:18:00,
2013-06-10 06:20:00,55.2,53.5,29.74,NE,56,0.0,6.0,94,0.00,,FEW250,0.00,VWS V14.01,2013-06-10 11:20:00,
2013-06-10 06:23:00,54.9,53.2,29.74,ENE,68,7.0,8.0,94,0.00,,,0.00,VWS V14.01,2013-06-10 11:23:00,
2013-06-10 06:25:00,54.9,53.2,29.74,ENE,68,7.0,8.0,94,0.00,,CLR,0.00,VWS V14.01,2013-06-10 11:25:00,
2013-06-10 06:28:00,54.5,52.8,29.74,ENE,65,4.0,8.0,94,0.00,,,0.00,VWS V14.01,2013-06-10 11:28:00,
2013-06-10 06:30:00,54.5,52.8,29.74,ENE,65,4.0,8.0,94,0.00,,CLR,0.00,VWS V14.01,2013-06-10 11:30:00,
2013-06-10 06:33:00,54.1,52.4,29.73,ENE,66,2.0,8.0,94,0.00,,,0.00,VWS V14.01,2013-06-10 11:33:00,
2013-06-10 06:35:00,54.1,52.4,29.73,ENE,66,2.0,8.0,94,0.00,,FEW250,0.00,VWS V14.01,2013-06-10 11:35:00,
2013-06-10 06:38:00,53.9,52.5,29.74,ENE,68,4.0,5.0,95,0.00,,,0.00,VWS V14.01,2013-06-10 11:38:00,
2013-06-10 06:40:00,53.9,52.5,29.74,ENE,68,4.0,5.0,95,0.00,,FEW250,0.00,VWS V14.01,2013-06-10 11:40:00,
2013-06-10 06:43:00,53.9,52.5,29.74,NE,53,0.0,6.0,95,0.00,,,0.00,VWS V14.01,2013-06-10 11:43:00,
2013-06-10 06:45:00,53.9,52.5,29.74,NE,53,0.0,6.0,95,0.00,,FEW250,0.00,VWS V14.01,2013-06-10 11:45:00,
2013-06-10 06:48:00,54.2,53.1,29.74,ENE,62,0.0,0.0,96,0.00,,,0.00,VWS V14.01,2013-06-10 11:48:00,
2013-06-10 06:50:00,54.2,53.1,29.74,ENE,62,0.0,0.0,96,0.00,,FEW250,0.00,VWS V14.01,2013-06-10 11:50:00,
2013-06-10 06:53:00,54.4,53.3,29.74,NE,54,5.0,5.0,96,0.00,,,0.00,VWS V14.01,2013-06-10 11:53:00,
2013-06-10 06:55:00,54.4,53.3,29.74,NE,54,5.0,5.0,96,0.00,,FEW250,0.00,VWS V14.01,2013-06-10 11:55:00,
2013-06-10 06:58:00,54.4,53.0,29.74,NE,48,0.0,3.0,95,0.00,,,0.00,VWS V14.01,2013-06-10 11:58:00,
2013-06-10 07:00:00,54.4,53.0,29.74,NE,48,0.0,3.0,95,0.00,,CLR,0.00,VWS V14.01,2013-06-10 12:00:00,
2013-06-10 07:04:00,54.4,53.0,29.74,NE,51,0.0,0.0,95,0.00,,,0.00,VWS V14.01,2013-06-10 12:04:00,
2013-06-10 07:05:00,54.4,53.0,29.74,NE,51,0.0,1.0,95,0.00,,FEW250,0.00,VWS V14.01,2013-06-10 12:05:00,
2013-06-10 07:09:00,54.5,53.4,29.74,NE,50,0.0,4.0,96,0.00,,,0.00,VWS V14.01,2013-06-10 12:09:00,
2013-06-10 07:10:00,54.5,53.4,29.74,NE,50,0.0,4.0,96,0.00,,FEW250,0.00,VWS V14.01,2013-06-10 12:10:00,
2013-06-10 07:14:00,54.6,53.5,29.73,NE,50,0.0,0.0,96,0.00,,,0.00,VWS V14.01,2013-06-10 12:14:00,
2013-06-10 07:15:00,54.6,53.5,29.74,NE,50,0.0,0.0,96,0.00,,FEW250,0.00,VWS V14.01,2013-06-10 12:15:00,
2013-06-10 07:19:00,54.9,53.8,29.74,NE,51,0.0,1.0,96,0.00,,,0.00,VWS V14.01,2013-06-10 12:19:00,
2013-06-10 07:20:00,54.8,53.7,29.74,NE,50,0.0,0.0,96,0.00,,FEW250,0.00,VWS V14.01,2013-06-10 12:20:00,
2013-06-10 07:24:00,54.8,53.7,29.74,ENE,61,0.0,5.0,96,0.00,,,0.00,VWS V14.01,2013-06-10 12:24:00,
2013-06-10 07:25:00,54.8,53.7,29.74,NE,51,0.0,5.0,96,0.00,,FEW250,0.00,VWS V14.01,2013-06-10 12:25:00,
2013-06-10 07:29:00,54.8,53.7,29.74,NE,50,0.0,0.0,96,0.00,,,0.00,VWS V14.01,2013-06-10 12:29:00,
2013-06-10 07:30:00,54.8,53.7,29.74,NE,51,0.0,2.0,96,0.00,,FEW250,0.00,VWS V14.01,2013-06-10 12:30:00,
2013-06-10 07:34:00,55.1,54.0,29.74,NE,49,0.0,0.0,96,0.00,,,0.00,VWS V14.01,2013-06-10 12:34:00,
2013-06-10 07:35:00,55.0,53.9,29.74,NE,49,0.0,0.0,96,0.00,,FEW250,0.00,VWS V14.01,2013-06-10 12:35:00,
2013-06-10 07:39:00,55.4,54.3,29.74,NE,49,0.0,0.0,96,0.00,,,0.00,VWS V14.01,2013-06-10 12:39:00,
2013-06-10 07:40:00,55.3,54.2,29.74,NE,49,0.0,0.0,96,0.00,,FEW250,0.00,VWS V14.01,2013-06-10 12:40:00,
2013-06-10 07:45:00,55.8,54.7,29.74,NE,49,0.0,0.0,96,0.00,,,0.00,VWS V14.01,2013-06-10 12:45:00,
2013-06-10 07:50:00,56.2,55.1,29.74,NE,49,0.0,0.0,96,0.00,,,0.00,VWS V14.01,2013-06-10 12:50:00,
2013-06-10 07:55:00,56.3,55.2,29.74,NE,49,0.0,0.0,96,0.00,,,0.00,VWS V14.01,2013-06-10 12:55:00,
2013-06-10 08:00:00,56.6,55.5,29.74,NE,49,0.0,0.0,96,0.00,,,0.00,VWS V14.01,2013-06-10 13:00:00,
2013-06-10 08:05:00,56.9,56.1,29.74,NE,49,0.0,0.0,97,0.00,,,0.00,VWS V14.01,2013-06-10 13:05:00,
2013-06-10 08:10:00,57.2,56.4,29.74,NE,49,0.0,0.0,97,0.00,,,0.00,VWS V14.01,2013-06-10 13:10:00,
2013-06-10 08:15:00,57.2,56.1,29.74,NE,48,0.0,0.0,96,0.00,,,0.00,VWS V14.01,2013-06-10 13:15:00,
2013-06-10 08:20:00,57.1,56.0,29.74,NE,48,0.0,0.0,96,0.00,,,0.00,VWS V14.01,2013-06-10 13:20:00,
2013-06-10 08:25:00,57.2,56.1,29.74,NE,43,0.0,1.0,96,0.00,,,0.00,VWS V14.01,2013-06-10 13:25:00,
2013-06-10 08:30:00,57.1,56.0,29.74,NE,43,0.0,0.0,96,0.00,,,0.00,VWS V14.01,2013-06-10 13:30:00,
2013-06-10 08:35:00,57.1,56.0,29.74,NE,43,0.0,0.0,96,0.00,,FEW250,0.00,VWS V14.01,2013-06-10 13:35:00,
2013-06-10 08:36:00,57.1,56.3,29.74,NE,41,0.0,0.0,97,0.00,,,0.00,VWS V14.01,2013-06-10 13:36:00,
2013-06-10 08:40:00,57.2,56.4,29.74,NE,41,0.0,0.0,97,0.00,,FEW250,0.00,VWS V14.01,2013-06-10 13:40:00,
2013-06-10 08:41:00,57.2,56.4,29.75,NE,40,0.0,1.0,97,0.00,,,0.00,VWS V14.01,2013-06-10 13:41:00,
2013-06-10 08:45:00,57.2,56.4,29.75,NE,40,0.0,1.0,97,0.00,,FEW250,0.00,VWS V14.01,2013-06-10 13:45:00,
2013-06-10 08:46:00,57.4,56.6,29.75,NE,40,0.0,0.0,97,0.00,,,0.00,VWS V14.01,2013-06-10 13:46:00,
2013-06-10 08:50:00,57.5,56.7,29.75,NE,40,0.0,0.0,97,0.00,,FEW250,0.00,VWS V14.01,2013-06-10 13:50:00,
2013-06-10 08:51:00,57.8,57.0,29.75,NE,40,0.0,0.0,97,0.00,,,0.00,VWS V14.01,2013-06-10 13:51:00,
2013-06-10 08:55:00,57.9,57.1,29.75,NE,40,0.0,0.0,97,0.00,,FEW250,0.00,VWS V14.01,2013-06-10 13:55:00,
2013-06-10 08:56:00,58.1,57.3,29.75,NE,40,0.0,0.0,97,0.00,,,0.00,VWS V14.01,2013-06-10 13:56:00,
2013-06-10 09:00:00,58.2,57.4,29.75,NE,40,0.0,0.0,97,0.00,,FEW250,0.00,VWS V14.01,2013-06-10 14:00:00,
2013-06-10 09:01:00,58.3,57.5,29.75,NE,40,0.0,0.0,97,0.00,,,0.00,VWS V14.01,2013-06-10 14:01:00,
2013-06-10 09:05:00,58.4,57.6,29.75,NE,40,0.0,0.0,97,0.00,,FEW250,0.00,VWS V14.01,2013-06-10 14:05:00,
2013-06-10 09:06:00,58.5,57.7,29.75,NE,40,0.0,0.0,97,0.00,,,0.00,VWS V14.01,2013-06-10 14:06:00,
2013-06-10 09:10:00,58.6,57.8,29.75,NE,40,0.0,0.0,97,0.00,,FEW250,0.00,VWS V14.01,2013-06-10 14:10:00,
2013-06-10 09:11:00,58.8,58.0,29.74,NE,40,0.0,1.0,97,0.00,,,0.00,VWS V14.01,2013-06-10 14:11:00,
2013-06-10 09:15:00,58.9,58.0,29.74,NE,40,0.0,1.0,97,0.00,,FEW250,0.00,VWS V14.01,2013-06-10 14:15:00,
2013-06-10 09:16:00,59.0,58.2,29.74,NE,40,0.0,1.0,97,0.00,,,0.00,VWS V14.01,2013-06-10 14:16:00,
2013-06-10 09:20:00,59.0,58.2,29.74,NE,40,0.0,1.0,97,0.00,,CLR,0.00,VWS V14.01,2013-06-10 14:20:00,
2013-06-10 09:21:00,59.2,58.3,29.74,NE,40,0.0,0.0,97,0.00,,,0.00,VWS V14.01,2013-06-10 14:21:00,
2013-06-10 09:25:00,59.3,58.5,29.74,NE,40,0.0,0.0,97,0.00,,FEW250,0.00,VWS V14.01,2013-06-10 14:25:00,
2013-06-10 09:26:00,59.3,58.5,29.74,NE,40,0.0,0.0,97,0.00,,,0.00,VWS V14.01,2013-06-10 14:26:00,
2013-06-10 09:30:00,59.3,58.5,29.74,NE,40,0.0,0.0,97,0.00,,CLR,0.00,VWS V14.01,2013-06-10 14:30:00,
2013-06-10 09:32:00,59.4,58.5,29.75,NE,40,0.0,1.0,97,0.00,,,0.00,VWS V14.01,2013-06-10 14:32:00,
2013-06-10 09:35:00,59.4,58.5,29.75,NE,42,1.0,3.0,97,0.00,,FEW250,0.00,VWS V14.01,2013-06-10 14:35:00,
2013-06-10 09:37:00,59.5,58.7,29.74,NE,41,0.0,3.0,97,0.00,,,0.00,VWS V14.01,2013-06-10 14:37:00,
2013-06-10 09:40:00,59.6,58.8,29.74,NE,41,0.0,1.0,97,0.00,,FEW250,0.00,VWS V14.01,2013-06-10 14:40:00,
2013-06-10 09:42:00,59.9,59.0,29.75,NE,41,0.0,1.0,97,0.00,,,0.00,VWS V14.01,2013-06-10 14:42:00,
2013-06-10 09:45:00,59.9,59.0,29.75,NE,41,0.0,1.0,97,0.00,,FEW250,0.00,VWS V14.01,2013-06-10 14:45:00,
2013-06-10 09:47:00,60.2,59.3,29.74,NE,41,0.0,1.0,97,0.00,,,0.00,VWS V14.01,2013-06-10 14:47:00,
2013-06-10 09:50:00,60.2,59.1,29.74,NE,41,0.0,1.0,96,0.00,,FEW250,0.00,VWS V14.01,2013-06-10 14:50:00,
2013-06-10 09:52:00,60.2,59.1,29.74,NE,41,0.0,0.0,96,0.00,,,0.00,VWS V14.01,2013-06-10 14:52:00,
2013-06-10 09:55:00,60.1,59.0,29.74,NE,41,0.0,0.0,96,0.00,,CLR,0.00,VWS V14.01,2013-06-10 14:55:00,
2013-06-10 09:57:00,60.1,58.7,29.74,NE,41,0.0,1.0,95,0.00,,,0.00,VWS V14.01,2013-06-10 14:57:00,
2013-06-10 10:00:00,60.1,58.7,29.74,NE,41,0.0,1.0,95,0.00,,FEW250,0.00,VWS V14.01,2013-06-10 15:00:00,
2013-06-10 10:02:00,60.1,58.7,29.74,NE,42,0.0,1.0,95,0.00,,,0.00,VWS V14.01,2013-06-10 15:02:00,
2013-06-10 10:05:00,60.1,58.7,29.74,NE,42,0.0,1.0,95,0.00,,CLR,0.00,VWS V14.01,2013-06-10 15:05:00,
2013-06-10 10:07:00,60.1,58.7,29.74,NE,42,0.0,1.0,95,0.00,,,0.00,VWS V14.01,2013-06-10 15:07:00,
2013-06-10 10:10:00,60.1,58.7,29.74,NE,42,2.0,2.0,95,0.00,,FEW250,0.00,VWS V14.01,2013-06-10 15:10:00,
2013-06-10 10:12:00,59.8,58.4,29.75,ENE,59,0.0,3.0,95,0.00,,,0.00,VWS V14.01,2013-06-10 15:12:00,
2013-06-10 10:15:00,59.7,58.3,29.75,ENE,59,0.0,3.0,95,0.00,,FEW250,0.00,VWS V14.01,2013-06-10 15:15:00,
2013-06-10 10:17:00,59.5,58.1,29.75,ENE,59,0.0,0.0,95,0.00,,,0.00,VWS V14.01,2013-06-10 15:17:00,
2013-06-10 10:20:00,59.6,58.2,29.75,ENE,59,0.0,0.0,95,0.00,,FEW250,0.00,VWS V14.01,2013-06-10 15:20:00,
2013-06-10 10:22:00,59.7,58.3,29.75,ENE,59,0.0,1.0,95,0.00,,,0.00,VWS V14.01,2013-06-10 15:22:00,
2013-06-10 10:25:00,59.7,58.3,29.75,ENE,59,1.0,3.0,95,0.00,,FEW250,0.00,VWS V14.01,2013-06-10 15:25:00,
2013-06-10 10:27:00,59.9,58.5,29.74,ENE,59,0.0,3.0,95,0.00,,,0.00,VWS V14.01,2013-06-10 15:27:00,
2013-06-10 10:30:00,59.9,58.5,29.74,ENE,59,0.0,3.0,95,0.00,,FEW250,0.00,VWS V14.01,2013-06-10 15:30:00,
2013-06-10 10:33:00,60.0,58.6,29.75,ENE,59,0.0,3.0,95,0.00,,,0.00,VWS V14.01,2013-06-10 15:33:00,
2013-06-10 10:35:00,59.9,58.5,29.75,ENE,59,0.0,3.0,95,0.00,,FEW250,0.00,VWS V14.01,2013-06-10 15:35:00,
2013-06-10 10:38:00,59.9,58.5,29.74,NE,55,0.0,1.0,95,0.00,,,0.00,VWS V14.01,2013-06-10 15:38:00,
2013-06-10 10:40:00,59.9,58.5,29.74,NE,55,0.0,0.0,95,0.00,,FEW250,0.00,VWS V14.01,2013-06-10 15:40:00,
2013-06-10 10:43:00,60.0,58.6,29.75,NE,55,0.0,0.0,95,0.00,,,0.00,VWS V14.01,2013-06-10 15:43:00,
2013-06-10 10:45:00,60.0,58.6,29.75,NE,55,0.0,0.0,95,0.00,,FEW250,0.00,VWS V14.01,2013-06-10 15:45:00,
2013-06-10 10:48:00,60.4,59.0,29.75,NE,55,0.0,0.0,95,0.00,,,0.00,VWS V14.01,2013-06-10 15:48:00,
2013-06-10 10:50:00,60.4,59.0,29.75,NE,55,0.0,0.0,95,0.00,,FEW250,0.00,VWS V14.01,2013-06-10 15:50:00,
2013-06-10 10:53:00,61.0,59.9,29.75,NE,55,0.0,0.0,96,0.00,,,0.00,VWS V14.01,2013-06-10 15:53:00,
2013-06-10 10:55:00,61.1,60.0,29.75,NE,55,0.0,0.0,96,0.00,,FEW250,0.00,VWS V14.01,2013-06-10 15:55:00,
2013-06-10 10:58:00,61.6,60.2,29.75,ENE,57,0.0,0.0,95,0.00,,,0.00,VWS V14.01,2013-06-10 15:58:00,
2013-06-10 11:00:00,61.6,60.2,29.75,ENE,57,0.0,0.0,95,0.00,,FEW250,0.00,VWS V14.01,2013-06-10 16:00:00,
2013-06-10 11:03:00,62.2,60.8,29.75,ENE,57,0.0,0.0,95,0.00,,,0.00,VWS V14.01,2013-06-10 16:03:00,
2013-06-10 11:05:00,62.2,60.8,29.75,ENE,57,0.0,0.0,95,0.00,,FEW250,0.00,VWS V14.01,2013-06-10 16:05:00,
2013-06-10 11:08:00,62.7,61.0,29.75,ENE,57,0.0,0.0,94,0.00,,,0.00,VWS V14.01,2013-06-10 16:08:00,
2013-06-10 11:10:00,62.7,61.0,29.75,ENE,57,0.0,0.0,94,0.00,,FEW250,0.00,VWS V14.01,2013-06-10 16:10:00,
2013-06-10 11:13:00,63.4,61.7,29.75,NE,56,0.0,0.0,94,0.00,,,0.00,VWS V14.01,2013-06-10 16:13:00,
2013-06-10 11:15:00,63.4,61.7,29.75,NE,56,0.0,0.0,94,0.00,,FEW250,0.00,VWS V14.01,2013-06-10 16:15:00,
2013-06-10 11:19:00,63.9,61.5,29.75,NE,53,0.0,1.0,92,0.00,,,0.00,VWS V14.01,2013-06-10 16:19:00,
2013-06-10 11:20:00,63.9,61.5,29.75,NE,55,0.0,1.0,92,0.00,,FEW250,0.00,VWS V14.01,2013-06-10 16:20:00,
2013-06-10 11:24:00,63.5,60.5,29.75,ENE,57,0.0,5.0,90,0.00,,,0.00,VWS V14.01,2013-06-10 16:24:00,
2013-06-10 11:25:00,63.6,60.6,29.75,ENE,57,0.0,5.0,90,0.00,,FEW250,0.00,VWS V14.01,2013-06-10 16:25:00,
2013-06-10 11:29:00,62.6,60.2,29.75,NE,53,0.0,4.0,92,0.00,,,0.00,VWS V14.01,2013-06-10 16:29:00,
2013-06-10 11:30:00,62.7,59.7,29.75,NE,53,0.0,4.0,90,0.00,,FEW250,0.00,VWS V14.01,2013-06-10 16:30:00,
2013-06-10 11:34:00,62.3,60.0,29.75,NE,53,0.0,1.0,92,0.00,,,0.00,VWS V14.01,2013-06-10 16:34:00,
2013-06-10 11:35:00,62.3,59.6,29.75,NE,53,0.0,0.0,91,0.00,,FEW250,0.00,VWS V14.01,2013-06-10 16:35:00,
2013-06-10 11:39:00,62.2,59.8,29.75,NE,51,0.0,1.0,92,0.00,,,0.00,VWS V14.01,2013-06-10 16:39:00,
2013-06-10 11:40:00,62.2,59.5,29.75,NE,51,0.0,3.0,91,0.00,,FEW250,0.00,VWS V14.01,2013-06-10 16:40:00,
2013-06-10 11:44:00,62.4,60.0,29.75,NE,51,0.0,0.0,92,0.00,,,0.00,VWS V14.01,2013-06-10 16:44:00,
2013-06-10 11:45:00,62.4,60.0,29.75,NE,51,0.0,0.0,92,0.00,,FEW250,0.00,VWS V14.01,2013-06-10 16:45:00,
2013-06-10 11:50:00,62.9,60.5,29.74,NE,55,0.0,3.0,92,0.00,,,0.00,VWS V14.01,2013-06-10 16:50:00,
2013-06-10 11:55:00,63.1,60.4,29.74,NE,55,0.0,1.0,91,0.00,,,0.00,VWS V14.01,2013-06-10 16:55:00,
2013-06-10 12:00:00,63.4,61.0,29.74,NE,55,0.0,0.0,92,0.00,,,0.00,VWS V14.01,2013-06-10 17:00:00,
2013-06-10 12:05:00,63.7,61.0,29.74,NE,55,0.0,1.0,91,0.00,,,0.00,VWS V14.01,2013-06-10 17:05:00,
2013-06-10 12:10:00,63.8,60.8,29.74,ENE,57,0.0,1.0,90,0.00,,,0.00,VWS V14.01,2013-06-10 17:10:00,
2013-06-10 12:15:00,64.1,61.1,29.73,ENE,59,0.0,1.0,90,0.00,,,0.00,VWS V14.01,2013-06-10 17:15:00,
2013-06-10 12:20:00,64.2,61.2,29.74,ENE,60,1.0,3.0,90,0.00,,,0.00,VWS V14.01,2013-06-10 17:20:00,
2013-06-10 12:25:00,64.2,61.2,29.73,ENE,60,0.0,5.0,90,0.00,,,0.00,VWS V14.01,2013-06-10 17:25:00,
2013-06-10 12:30:00,64.3,61.3,29.73,NE,40,3.0,3.0,90,0.00,,,0.00,VWS V14.01,2013-06-10 17:30:00,
2013-06-10 12:35:00,64.4,61.1,29.74,ENE,66,3.0,4.0,89,0.00,,,0.00,VWS V14.01,2013-06-10 17:35:00,
2013-06-10 12:40:00,64.3,61.0,29.74,NNE,32,3.0,5.0,89,0.00,,FEW250,0.00,VWS V14.01,2013-06-10 17:40:00,
2013-06-10 12:41:00,64.3,61.0,29.74,ENE,61,0.0,5.0,89,0.00,,,0.00,VWS V14.01,2013-06-10 17:41:00,
2013-06-10 12:45:00,64.3,60.7,29.74,NE,52,3.0,5.0,88,0.00,,FEW250,0.00,VWS V14.01,2013-06-10 17:45:00,
2013-06-10 12:46:00,64.2,60.6,29.74,NE,53,3.0,5.0,88,0.00,,,0.00,VWS V14.01,2013-06-10 17:46:00,
2013-06-10 12:50:00,64.1,60.5,29.74,ENE,65,5.0,5.0,88,0.00,,FEW250,0.00,VWS V14.01,2013-06-10 17:50:00,
2013-06-10 12:51:00,64.0,60.7,29.74,NE,40,3.0,5.0,89,0.00,,,0.00,VWS V14.01,2013-06-10 17:51:00,
2013-06-10 12:55:00,64.1,60.8,29.74,NE,51,5.0,5.0,89,0.00,,FEW250,0.00,VWS V14.01,2013-06-10 17:55:00,
2013-06-10 12:56:00,64.2,60.9,29.74,ENE,65,0.0,5.0,89,0.00,,,0.00,VWS V14.01,2013-06-10 17:56:00,
2013-06-10 13:00:00,64.5,61.2,29.74,ENE,69,3.0,4.0,89,0.00,,FEW250,0.00,VWS V14.01,2013-06-10 18:00:00,
2013-06-10 13:01:00,64.6,61.3,29.74,ENE,76,3.0,4.0,89,0.00,,,0.00,VWS V14.01,2013-06-10 18:01:00,
2013-06-10 13:05:00,64.5,61.2,29.74,ENE,74,4.0,4.0,89,0.00,,FEW250,0.00,VWS V14.01,2013-06-10 18:05:00,
2013-06-10 13:06:00,64.5,61.2,29.74,ENE,68,0.0,4.0,89,0.00,,,0.00,VWS V14.01,2013-06-10 18:06:00,
2013-06-10 13:10:00,64.4,61.1,29.74,ENE,70,5.0,5.0,89,0.00,,FEW250,0.00,VWS V14.01,2013-06-10 18:10:00,
2013-06-10 13:11:00,64.2,60.9,29.74,ENE,69,5.0,7.0,89,0.00,,,0.00,VWS V14.01,2013-06-10 18:11:00,
2013-06-10 13:15:00,64.0,60.7,29.74,ENE,73,5.0,7.0,89,0.00,,CLR,0.00,VWS V14.01,2013-06-10 18:15:00,
2013-06-10 13:16:00,63.8,60.8,29.74,ENE,65,4.0,7.0,90,0.00,,,0.00,VWS V14.01,2013-06-10 18:16:00,
2013-06-10 13:20:00,63.8,60.8,29.74,ENE,69,5.0,7.0,90,0.00,,FEW250,0.00,VWS V14.01,2013-06-10 18:20:00,
2013-06-10 13:21:00,63.8,60.8,29.74,East,79,6.0,7.0,90,0.00,,,0.00,VWS V14.01,2013-06-10 18:21:00,
2013-06-10 13:25:00,63.8,60.8,29.74,East,84,7.0,7.0,90,0.00,,FEW250,0.00,VWS V14.01,2013-06-10 18:25:00,
2013-06-10 13:26:00,63.4,60.1,29.74,ENE,78,5.0,10.0,89,0.00,,,0.00,VWS V14.01,2013-06-10 18:26:00,
2013-06-10 13:30:00,63.0,59.1,29.74,ENE,61,5.0,10.0,87,0.00,,FEW250,0.00,VWS V14.01,2013-06-10 18:30:00,
2013-06-10 13:32:00,62.4,58.5,29.74,ENE,58,0.0,8.0,87,0.00,,,0.00,VWS V14.01,2013-06-10 18:32:00,
2013-06-10 13:35:00,62.2,58.6,29.74,ENE,57,5.0,8.0,88,0.00,,FEW250,0.00,VWS V14.01,2013-06-10 18:35:00,
2013-06-10 13:37:00,61.6,58.0,29.74,ENE,68,4.0,11.0,88,0.00,,,0.00,VWS V14.01,2013-06-10 18:37:00,
2013-06-10 13:40:00,61.3,57.7,29.74,ENE,65,5.0,11.0,88,0.00,,FEW250,0.00,VWS V14.01,2013-06-10 18:40:00,
2013-06-10 13:42:00,61.0,57.7,29.74,ESE,118,3.0,9.0,89,0.00,,,0.00,VWS V14.01,2013-06-10 18:42:00,
2013-06-10 13:45:00,60.9,57.3,29.74,NNE,30,7.0,10.0,88,0.00,,FEW250,0.00,VWS V14.01,2013-06-10 18:45:00,
2013-06-10 13:47:00,60.3,57.0,29.74,ENE,58,5.0,9.0,89,0.00,,,0.00,VWS V14.01,2013-06-10 18:47:00,
2013-06-10 13:50:00,60.2,57.0,29.75,ENE,71,4.0,10.0,89,0.00,,FEW250,0.00,VWS V14.01,2013-06-10 18:50:00,
2013-06-10 13:52:00,59.9,57.0,29.74,NE,37,9.0,12.0,90,0.00,,,0.00,VWS V14.01,2013-06-10 18:52:00,
2013-06-10 13:55:00,59.8,57.2,29.74,NE,47,2.0,12.0,91,0.00,,FEW250,0.00,VWS V14.01,2013-06-10 18:55:00,
2013-06-10 13:57:00,59.9,57.6,29.74,NE,46,7.0,11.0,92,0.00,,,0.00,VWS V14.01,2013-06-10 18:57:00,
2013-06-10 14:00:00,59.9,57.6,29.74,ENE,65,8.0,11.0,92,0.00,,FEW250,0.00,VWS V14.01,2013-06-10 19:00:00,
2013-06-10 14:02:00,60.0,57.7,29.74,NE,42,8.0,10.0,92,0.00,,,0.00,VWS V14.01,2013-06-10 19:02:00,
2013-06-10 14:05:00,60.1,57.8,29.74,ENE,64,8.0,10.0,92,0.00,,FEW250,0.00,VWS V14.01,2013-06-10 19:05:00,
2013-06-10 14:07:00,59.9,57.6,29.74,NE,56,6.0,11.0,92,0.00,,,0.00,VWS V14.01,2013-06-10 19:07:00,
2013-06-10 14:10:00,59.9,57.6,29.74,NE,49,6.0,11.0,92,0.00,,FEW250,0.00,VWS V14.01,2013-06-10 19:10:00,
2013-06-10 14:13:00,59.5,57.2,29.74,NE,40,8.0,13.0,92,0.00,,,0.00,VWS V14.01,2013-06-10 19:13:00,
2013-06-10 14:15:00,59.5,57.2,29.74,NE,35,10.0,13.0,92,0.00,,FEW250,0.00,VWS V14.01,2013-06-10 19:15:00,
2013-06-10 14:18:00,58.9,56.3,29.74,ENE,66,7.0,11.0,91,0.00,,,0.00,VWS V14.01,2013-06-10 19:18:00,
2013-06-10 14:20:00,58.9,56.3,29.74,NE,49,7.0,10.0,91,0.00,,FEW250,0.00,VWS V14.01,2013-06-10 19:20:00,
2013-06-10 14:23:00,58.7,56.1,29.74,ENE,59,8.0,12.0,91,0.00,,,0.00,VWS V14.01,2013-06-10 19:23:00,
2013-06-10 14:25:00,58.6,56.0,29.74,ENE,65,8.0,12.0,91,0.00,,FEW250,0.00,VWS V14.01,2013-06-10 19:25:00,
2013-06-10 14:28:00,58.7,56.1,29.75,NNE,14,0.0,11.0,91,0.00,,,0.00,VWS V14.01,2013-06-10 19:28:00,
2013-06-10 14:30:00,58.7,56.4,29.75,East,81,0.0,11.0,92,0.00,,FEW250,0.00,VWS V14.01,2013-06-10 19:30:00,
2013-06-10 14:33:00,59.5,56.9,29.75,NNE,17,7.0,11.0,91,0.00,,,0.00,VWS V14.01,2013-06-10 19:33:00,
2013-06-10 14:35:00,59.5,56.9,29.75,North,11,6.0,11.0,91,0.00,,FEW250,0.00,VWS V14.01,2013-06-10 19:35:00,
2013-06-10 14:38:00,59.0,55.8,29.75,NNE,27,9.0,9.0,89,0.00,,,0.00,VWS V14.01,2013-06-10 19:38:00,
2013-06-10 14:40:00,59.0,55.8,29.75,NNE,27,9.0,9.0,89,0.00,,FEW250,0.00,VWS V14.01,2013-06-10 19:40:00,
2013-06-10 14:43:00,58.3,55.1,29.75,NE,48,8.0,12.0,89,0.00,,,0.00,VWS V14.01,2013-06-10 19:43:00,
2013-06-10 14:45:00,58.3,55.1,29.75,NE,48,8.0,12.0,89,0.00,,FEW250,0.00,VWS V14.01,2013-06-10 19:45:00,
2013-06-10 14:48:00,57.7,54.8,29.75,NE,35,2.0,9.0,90,0.00,,,0.00,VWS V14.01,2013-06-10 19:48:00,
2013-06-10 14:50:00,57.7,54.8,29.75,NE,35,2.0,9.0,90,0.00,,FEW250,0.00,VWS V14.01,2013-06-10 19:50:00,
2013-06-10 14:53:00,57.7,54.8,29.75,ENE,65,3.0,9.0,90,0.00,,,0.00,VWS V14.01,2013-06-10 19:53:00,
2013-06-10 14:55:00,57.7,54.8,29.75,ENE,65,3.0,9.0,90,0.00,,FEW250,0.00,VWS V14.01,2013-06-10 19:55:00,
2013-06-10 14:58:00,57.2,54.3,29.75,ENE,58,8.0,10.0,90,0.00,,,0.00,VWS V14.01,2013-06-10 19:58:00,
2013-06-10 15:00:00,57.2,54.3,29.75,ENE,58,8.0,10.0,90,0.00,,FEW250,0.00,VWS V14.01,2013-06-10 20:00:00,
2013-06-10 15:04:00,56.9,54.3,29.75,NNE,17,4.0,9.0,91,0.00,,,0.00,VWS V14.01,2013-06-10 20:04:00,
2013-06-10 15:05:00,56.9,54.3,29.75,NE,39,6.0,9.0,91,0.00,,FEW250,0.00,VWS V14.01,2013-06-10 20:05:00,
2013-06-10 15:09:00,56.9,54.6,29.75,NE,45,4.0,8.0,92,0.00,,,0.00,VWS V14.01,2013-06-10 20:09:00,
2013-06-10 15:10:00,56.9,54.3,29.75,ENE,61,4.0,8.0,91,0.00,,FEW250,0.00,VWS V14.01,2013-06-10 20:10:00,
2013-06-10 15:14:00,57.0,54.7,29.75,ENE,61,3.0,7.0,92,0.00,,,0.00,VWS V14.01,2013-06-10 20:14:00,
2013-06-10 15:15:00,57.0,54.7,29.75,NE,54,0.0,7.0,92,0.00,,FEW250,0.00,VWS V14.01,2013-06-10 20:15:00,
2013-06-10 15:19:00,57.4,55.1,29.75,NE,44,0.0,8.0,92,0.00,,,0.00,VWS V14.01,2013-06-10 20:19:00,
2013-06-10 15:20:00,57.3,55.0,29.75,NE,51,4.0,8.0,92,0.00,,FEW250,0.00,VWS V14.01,2013-06-10 20:20:00,
2013-06-10 15:24:00,58.0,56.0,29.75,ENE,61,0.0,5.0,93,0.00,,,0.00,VWS V14.01,2013-06-10 20:24:00,
2013-06-10 15:25:00,57.7,55.7,29.75,NE,45,2.0,5.0,93,0.00,,FEW250,0.00,VWS V14.01,2013-06-10 20:25:00,
2013-06-10 15:30:00,58.9,56.6,29.75,NE,50,0.0,6.0,92,0.00,,,0.00,VWS V14.01,2013-06-10 20:30:00,
2013-06-10 15:35:00,59.9,57.0,29.74,ENE,70,0.0,6.0,90,0.00,,,0.00,VWS V14.01,2013-06-10 20:35:00,
2013-06-10 15:40:00,60.2,57.0,29.74,NE,53,0.0,5.0,89,0.00,,,0.00,VWS V14.01,2013-06-10 20:40:00,
2013-06-10 15:45:00,60.7,57.1,29.74,NE,45,5.0,5.0,88,0.00,,,0.00,VWS V14.01,2013-06-10 20:45:00,
2013-06-10 15:50:00,60.8,57.5,29.74,NNE,33,2.0,5.0,89,0.00,,,0.00,VWS V14.01,2013-06-10 20:50:00,
2013-06-10 15:55:00,60.7,57.8,29.74,ENE,62,4.0,8.0,90,0.00,,,0.00,VWS V14.01,2013-06-10 20:55:00,
2013-06-10 16:00:00,60.4,57.8,29.74,NE,40,0.0,7.0,91,0.00,,,0.00,VWS V14.01,2013-06-10 21:00:00,
2013-06-10 16:05:00,60.0,57.4,29.74,ENE,63,4.0,7.0,91,0.00,,,0.00,VWS V14.01,2013-06-10 21:05:00,
2013-06-10 16:10:00,59.5,56.9,29.74,NE,46,5.0,8.0,91,0.00,,FEW250,0.00,VWS V14.01,2013-06-10 21:10:00,
2013-06-10 16:11:00,59.3,56.7,29.74,NNE,26,3.0,8.0,91,0.00,,,0.00,VWS V14.01,2013-06-10 21:11:00,
2013-06-10 16:15:00,59.3,57.0,29.74,NNE,27,7.0,8.0,92,0.00,,FEW250,0.00,VWS V14.01,2013-06-10 21:15:00,
2013-06-10 16:16:00,58.8,56.5,29.74,NE,50,4.0,8.0,92,0.00,,,0.00,VWS V14.01,2013-06-10 21:16:00,
2013-06-10 16:20:00,58.4,56.1,29.74,NE,56,5.0,8.0,92,0.00,,FEW250,0.00,VWS V14.01,2013-06-10 21:20:00,
2013-06-10 16:21:00,58.1,55.8,29.74,NE,46,2.0,8.0,92,0.00,,,0.00,VWS V14.01,2013-06-10 21:21:00,
2013-06-10 16:25:00,58.1,56.1,29.75,NE,40,3.0,8.0,93,0.00,,FEW250,0.00,VWS V14.01,2013-06-10 21:25:00,
2013-06-10 16:26:00,58.1,56.4,29.74,ENE,61,0.0,7.0,94,0.00,,,0.00,VWS V14.01,2013-06-10 21:26:00,
2013-06-10 16:30:00,58.2,56.5,29.75,NE,46,5.0,7.0,94,0.00,,FEW250,0.00,VWS V14.01,2013-06-10 21:30:00,
2013-06-10 16:32:00,58.1,56.4,29.75,NE,49,4.0,5.0,94,0.00,,,0.00,VWS V14.01,2013-06-10 21:32:00,
2013-06-10 16:35:00,58.0,56.3,29.75,NE,36,0.0,6.0,94,0.00,,FEW250,0.00,VWS V14.01,2013-06-10 21:35:00,
2013-06-10 16:37:00,58.0,56.3,29.74,NE,36,0.0,6.0,94,0.00,,,0.00,VWS V14.01,2013-06-10 21:37:00,
2013-06-10 16:40:00,58.0,56.3,29.74,NE,51,0.0,6.0,94,0.00,,FEW250,0.00,VWS V14.01,2013-06-10 21:40:00,
2013-06-10 16:42:00,58.1,56.4,29.74,NE,49,0.0,5.0,94,0.00,,,0.00,VWS V14.01,2013-06-10 21:42:00,
2013-06-10 16:45:00,58.3,56.9,29.74,NE,47,0.0,5.0,95,0.00,,FEW250,0.00,VWS V14.01,2013-06-10 21:45:00,
2013-06-10 16:47:00,58.7,57.3,29.74,ENE,59,0.0,4.0,95,0.00,,,0.00,VWS V14.01,2013-06-10 21:47:00,
2013-06-10 16:50:00,58.9,57.5,29.74,East,84,0.0,4.0,95,0.00,,FEW250,0.00,VWS V14.01,2013-06-10 21:50:00,
2013-06-10 16:52:00,59.0,57.6,29.74,ENE,75,4.0,5.0,95,0.00,,,0.00,VWS V14.01,2013-06-10 21:52:00,
2013-06-10 16:55:00,59.0,57.6,29.74,ENE,59,0.0,5.0,95,0.00,,FEW250,0.00,VWS V14.01,2013-06-10 21:55:00,
2013-06-10 16:58:00,59.1,57.4,29.74,ENE,65,0.0,5.0,94,0.00,,,0.00,VWS V14.01,2013-06-10 21:58:00,
2013-06-10 17:00:00,59.1,57.4,29.74,East,94,0.0,4.0,94,0.00,,FEW250,0.00,VWS V14.01,2013-06-10 22:00:00,
2013-06-10 17:03:00,59.6,57.9,29.74,NE,36,3.0,4.0,94,0.00,,,0.00,VWS V14.01,2013-06-10 22:03:00,
2013-06-10 17:05:00,59.8,58.1,29.74,NE,36,0.0,5.0,94,0.00,,FEW250,0.00,VWS V14.01,2013-06-10 22:05:00,
2013-06-10 17:08:00,60.1,58.1,29.74,NE,41,0.0,4.0,93,0.00,,,0.00,VWS V14.01,2013-06-10 22:08:00,
2013-06-10 17:10:00,60.1,57.8,29.74,NE,53,2.0,7.0,92,0.00,,FEW250,0.00,VWS V14.01,2013-06-10 22:10:00,
2013-06-10 17:13:00,60.0,57.1,29.74,NE,44,5.0,6.0,90,0.00,,,0.00,VWS V14.01,2013-06-10 22:13:00,
2013-06-10 17:15:00,59.9,57.0,29.74,NE,46,4.0,6.0,90,0.00,,FEW250,0.00,VWS V14.01,2013-06-10 22:15:00,
2013-06-10 17:18:00,59.7,56.8,29.74,NE,44,2.0,7.0,90,0.00,,,0.00,VWS V14.01,2013-06-10 22:18:00,
2013-06-10 17:20:00,59.7,56.8,29.74,NE,51,3.0,7.0,90,0.00,,FEW250,0.00,VWS V14.01,2013-06-10 22:20:00,
2013-06-10 17:23:00,59.6,56.7,29.74,ENE,57,3.0,7.0,90,0.00,,,0.00,VWS V14.01,2013-06-10 22:23:00,
2013-06-10 17:25:00,59.5,56.6,29.74,NE,56,6.0,7.0,90,0.00,,FEW250,0.00,VWS V14.01,2013-06-10 22:25:00,
2013-06-10 17:28:00,59.1,55.9,29.75,NE,51,5.0,8.0,89,0.00,,,0.00,VWS V14.01,2013-06-10 22:28:00,
2013-06-10 17:30:00,59.0,55.8,29.75,NNE,28,5.0,8.0,89,0.00,,CLR,0.00,VWS V14.01,2013-06-10 22:30:00,
2013-06-10 17:33:00,58.8,55.6,29.74,ENE,71,0.0,8.0,89,0.00,,,0.00,VWS V14.01,2013-06-10 22:33:00,
2013-06-10 17:35:00,58.8,55.6,29.74,NE,44,0.0,8.0,89,0.00,,FEW250,0.00,VWS V14.01,2013-06-10 22:35:00,
2013-06-10 17:38:00,59.0,55.8,29.74,ENE,74,0.0,7.0,89,0.00,,,0.00,VWS V14.01,2013-06-10 22:38:00,
2013-06-10 17:40:00,59.0,55.8,29.74,ENE,74,0.0,7.0,89,0.00,,CLR,0.00,VWS V14.01,2013-06-10 22:40:00,
2013-06-10 17:43:00,59.1,55.9,29.74,NE,40,7.0,7.0,89,0.00,,,0.00,VWS V14.01,2013-06-10 22:43:00,
2013-06-10 17:45:00,59.1,55.9,29.74,NE,40,7.0,7.0,89,0.00,,FEW250,0.00,VWS V14.01,2013-06-10 22:45:00,
2013-06-10 17:48:00,58.9,55.7,29.74,NE,39,0.0,8.0,89,0.00,,,0.00,VWS V14.01,2013-06-10 22:48:00,
2013-06-10 17:50:00,58.9,55.7,29.74,NE,39,0.0,8.0,89,0.00,,CLR,0.00,VWS V14.01,2013-06-10 22:50:00,
2013-06-10 17:53:00,59.0,56.1,29.75,NE,50,0.0,7.0,90,0.00,,,0.00,VWS V14.01,2013-06-10 22:53:00,
2013-06-10 17:55:00,59.0,56.1,29.75,NE,50,0.0,7.0,90,0.00,,FEW250,0.00,VWS V14.01,2013-06-10 22:55:00,
2013-06-10 17:58:00,59.1,56.2,29.75,ENE,68,0.0,8.0,90,0.00,,,0.00,VWS V14.01,2013-06-10 22:58:00,
2013-06-10 18:00:00,59.1,56.2,29.75,ENE,68,0.0,8.0,90,0.00,,CLR,0.00,VWS V14.01,2013-06-10 23:00:00,
2013-06-10 18:03:00,59.1,56.2,29.75,NE,34,4.0,8.0,90,0.00,,FEW100,0.00,VWS V14.01,2013-06-10 23:03:00,
2013-06-10 18:05:00,59.1,56.2,29.75,NE,34,4.0,8.0,90,0.00,,FEW200,0.00,VWS V14.01,2013-06-10 23:05:00,
2013-06-10 18:08:00,59.3,56.4,29.75,NE,46,0.0,5.0,90,0.00,,FEW100,0.00,VWS V14.01,2013-06-10 23:08:00,
2013-06-10 18:10:00,59.3,56.4,29.75,NE,46,0.0,5.0,90,0.00,,FEW250,0.00,VWS V14.01,2013-06-10 23:10:00,
2013-06-10 18:13:00,59.2,56.0,29.75,NE,46,2.0,6.0,89,0.00,,FEW100,0.00,VWS V14.01,2013-06-10 23:13:00,
2013-06-10 18:15:00,59.2,56.0,29.75,NE,46,2.0,6.0,89,0.00,,CLR,0.00,VWS V14.01,2013-06-10 23:15:00,
2013-06-10 18:18:00,59.0,55.8,29.75,ENE,67,4.0,10.0,89,0.00,,FEW100,0.00,VWS V14.01,2013-06-10 23:18:00,
2013-06-10 18:20:00,59.0,55.8,29.75,ENE,67,4.0,10.0,89,0.00,,CLR,0.00,VWS V14.01,2013-06-10 23:20:00,
2013-06-10 18:23:00,58.7,55.5,29.75,NE,51,0.0,5.0,89,0.00,,FEW100,0.00,VWS V14.01,2013-06-10 23:23:00,
2013-06-10 18:25:00,58.7,55.5,29.75,NE,51,0.0,5.0,89,0.00,,FEW250,0.00,VWS V14.01,2013-06-10 23:25:00,
2013-06-10 18:28:00,58.5,55.3,29.75,NE,42,0.0,5.0,89,0.00,,FEW100,0.00,VWS V14.01,2013-06-10 23:28:00,
2013-06-10 18:30:00,58.5,55.3,29.75,NE,42,0.0,5.0,89,0.00,,CLR,0.00,VWS V14.01,2013-06-10 23:30:00,
2013-06-10 18:33:00,58.3,55.1,29.75,NNE,24,2.0,5.0,89,0.00,,FEW100,0.00,VWS V14.01,2013-06-10 23:33:00,
2013-06-10 18:35:00,58.3,55.1,29.75,NNE,24,2.0,5.0,89,0.00,,CLR,0.00,VWS V14.01,2013-06-10 23:35:00,
2013-06-10 18:38:00,58.4,55.2,29.75,ENE,78,0.0,4.0,89,0.00,,FEW100,0.00,VWS V14.01,2013-06-10 23:38:00,
2013-06-10 18:40:00,58.4,55.2,29.75,ENE,78,0.0,4.0,89,0.00,,CLR,0.00,VWS V14.01,2013-06-10 23:40:00,
2013-06-10 18:43:00,58.5,55.3,29.75,ENE,67,0.0,4.0,89,0.00,,FEW100,0.00,VWS V14.01,2013-06-10 23:43:00,
2013-06-10 18:45:00,58.5,55.3,29.75,ENE,67,0.0,4.0,89,0.00,,FEW200,0.00,VWS V14.01,2013-06-10 23:45:00,
2013-06-10 18:48:00,58.3,55.1,29.74,ENE,69,4.0,5.0,89,0.00,,FEW100,0.00,VWS V14.01,2013-06-10 23:48:00,
2013-06-10 18:50:00,58.3,55.1,29.74,ENE,69,4.0,5.0,89,0.00,,FEW200,0.00,VWS V14.01,2013-06-10 23:50:00,
2013-06-10 18:54:00,58.2,55.3,29.74,ENE,74,4.0,5.0,90,0.00,,FEW100,0.00,VWS V14.01,2013-06-10 23:54:00,
2013-06-10 18:55:00,58.2,55.3,29.74,ENE,71,1.0,5.0,90,0.00,,CLR,0.00,VWS V14.01,2013-06-10 23:55:00,
2013-06-10 18:59:00,58.3,55.7,29.74,ENE,71,0.0,5.0,91,0.00,,FEW100,0.00,VWS V14.01,2013-06-10 23:59:00,
2013-06-10 19:00:00,58.3,55.7,29.74,ENE,71,0.0,5.0,91,0.00,,FEW200,0.00,VWS V14.01,2013-06-11 00:00:00,
2013-06-10 19:04:00,58.5,55.9,29.75,ENE,71,0.0,0.0,91,0.00,,FEW100,0.00,VWS V14.01,2013-06-11 00:04:00,
2013-06-10 19:05:00,58.5,55.9,29.75,ENE,71,0.0,0.0,91,0.00,,CLR,0.00,VWS V14.01,2013-06-11 00:05:00,
2013-06-10 19:09:00,58.9,56.3,29.75,ENE,69,0.0,0.0,91,0.00,,FEW100,0.00,VWS V14.01,2013-06-11 00:09:00,
2013-06-10 19:10:00,58.8,56.2,29.75,ENE,70,0.0,0.0,91,0.00,,FEW250,0.00,VWS V14.01,2013-06-11 00:10:00,
2013-06-10 19:14:00,59.0,56.1,29.75,ENE,69,0.0,4.0,90,0.00,,FEW100,0.00,VWS V14.01,2013-06-11 00:14:00,
2013-06-10 19:15:00,59.0,56.1,29.75,ENE,69,0.0,4.0,90,0.00,,CLR,0.00,VWS V14.01,2013-06-11 00:15:00,
2013-06-10 19:19:00,59.1,56.2,29.75,ENE,69,0.0,0.0,90,0.00,,FEW100,0.00,VWS V14.01,2013-06-11 00:19:00,
2013-06-10 19:20:00,59.0,56.1,29.75,ENE,69,0.0,0.0,90,0.00,,CLR,0.00,VWS V14.01,2013-06-11 00:20:00,
2013-06-10 19:24:00,58.8,55.6,29.75,ENE,69,0.0,0.0,89,0.00,,FEW100,0.00,VWS V14.01,2013-06-11 00:24:00,
2013-06-10 19:25:00,58.9,56.0,29.75,ENE,69,0.0,0.0,90,0.00,,CLR,0.00,VWS V14.01,2013-06-11 00:25:00,
2013-06-10 19:30:00,58.3,55.1,29.75,ENE,69,0.0,0.0,89,0.00,,FEW100,0.00,VWS V14.01,2013-06-11 00:30:00,
2013-06-10 19:35:00,58.1,55.2,29.75,ENE,69,0.0,0.0,90,0.00,,FEW100,0.00,VWS V14.01,2013-06-11 00:35:00,
2013-06-10 19:40:00,57.9,55.0,29.75,ENE,69,0.0,3.0,90,0.00,,FEW100,0.00,VWS V14.01,2013-06-11 00:40:00,
2013-06-10 19:45:00,57.7,54.8,29.75,ENE,69,0.0,0.0,90,0.00,,FEW100,0.00,VWS V14.01,2013-06-11 00:45:00,
2013-06-10 19:50:00,57.6,54.7,29.75,ENE,69,0.0,1.0,90,0.00,,FEW100,0.00,VWS V14.01,2013-06-11 00:50:00,
2013-06-10 19:55:00,57.4,54.5,29.75,ENE,69,0.0,0.0,90,0.00,,FEW100,0.00,VWS V14.01,2013-06-11 00:55:00,
2013-06-10 20:00:00,57.3,54.7,29.75,ENE,69,0.0,0.0,91,0.00,,FEW100,0.00,VWS V14.01,2013-06-11 01:00:00,
2013-06-10 20:05:00,57.4,54.8,29.75,ENE,69,0.0,0.0,91,0.00,,,0.00,VWS V14.01,2013-06-11 01:05:00,
2013-06-10 20:10:00,57.4,54.5,29.76,ENE,69,0.0,0.0,90,0.00,,,0.00,VWS V14.01,2013-06-11 01:10:00,
2013-06-10 20:15:00,57.4,54.8,29.75,ENE,69,0.0,0.0,91,0.00,,,0.00,VWS V14.01,2013-06-11 01:15:00,
2013-06-10 20:20:00,57.3,54.7,29.76,ENE,69,0.0,0.0,91,0.00,,,0.00,VWS V14.01,2013-06-11 01:20:00,
2013-06-10 20:25:00,57.3,54.7,29.76,ENE,69,0.0,0.0,91,0.00,,CLR,0.00,VWS V14.01,2013-06-11 01:25:00,
2013-06-10 20:26:00,57.3,54.7,29.76,ENE,69,0.0,0.0,91,0.00,,,0.00,VWS V14.01,2013-06-11 01:26:00,
2013-06-10 20:30:00,57.3,54.7,29.76,ENE,69,0.0,0.0,91,0.00,,CLR,0.00,VWS V14.01,2013-06-11 01:30:00,
2013-06-10 20:31:00,57.3,54.7,29.76,ENE,69,0.0,0.0,91,0.00,,,0.00,VWS V14.01,2013-06-11 01:31:00,
2013-06-10 20:35:00,57.2,54.6,29.76,ENE,69,0.0,0.0,91,0.00,,CLR,0.00,VWS V14.01,2013-06-11 01:35:00,
2013-06-10 20:36:00,57.2,54.6,29.76,ENE,69,0.0,0.0,91,0.00,,,0.00,VWS V14.01,2013-06-11 01:36:00,
2013-06-10 20:40:00,57.3,55.0,29.76,ENE,69,0.0,0.0,92,0.00,,CLR,0.00,VWS V14.01,2013-06-11 01:40:00,
2013-06-10 20:41:00,57.4,55.1,29.76,ENE,69,0.0,0.0,92,0.00,,,0.00,VWS V14.01,2013-06-11 01:41:00,
2013-06-10 20:45:00,57.5,55.2,29.76,ENE,69,0.0,0.0,92,0.00,,FEW200,0.00,VWS V14.01,2013-06-11 01:45:00,
2013-06-10 20:46:00,57.4,55.1,29.76,ENE,69,0.0,0.0,92,0.00,,,0.00,VWS V14.01,2013-06-11 01:46:00,
2013-06-10 20:50:00,57.5,55.5,29.76,ENE,69,0.0,0.0,93,0.00,,CLR,0.00,VWS V14.01,2013-06-11 01:50:00,
2013-06-10 20:51:00,57.5,55.5,29.76,ENE,69,0.0,0.0,93,0.00,,,0.00,VWS V14.01,2013-06-11 01:51:00,
2013-06-10 20:55:00,57.6,55.6,29.76,ENE,69,0.0,0.0,93,0.00,,CLR,0.00,VWS V14.01,2013-06-11 01:55:00,
2013-06-10 20:56:00,57.7,55.7,29.76,ENE,69,0.0,0.0,93,0.00,,,0.00,VWS V14.01,2013-06-11 01:56:00,
2013-06-10 21:00:00,57.6,55.6,29.77,ENE,69,0.0,0.0,93,0.00,,CLR,0.00,VWS V14.01,2013-06-11 02:00:00,
2013-06-10 21:01:00,57.6,55.3,29.77,ENE,69,0.0,0.0,92,0.00,,,0.00,VWS V14.01,2013-06-11 02:01:00,
2013-06-10 21:05:00,57.5,55.2,29.77,ENE,69,0.0,0.0,92,0.00,,FEW250,0.00,VWS V14.01,2013-06-11 02:05:00,
2013-06-10 21:07:00,57.5,55.2,29.77,ENE,69,0.0,0.0,92,0.00,,,0.00,VWS V14.01,2013-06-11 02:07:00,
2013-06-10 21:10:00,57.5,55.2,29.77,ENE,69,0.0,0.0,92,0.00,,CLR,0.00,VWS V14.01,2013-06-11 02:10:00,
2013-06-10 21:12:00,57.4,55.1,29.77,ENE,69,0.0,0.0,92,0.00,,,0.00,VWS V14.01,2013-06-11 02:12:00,
2013-06-10 21:15:00,57.4,55.1,29.77,ENE,69,0.0,0.0,92,0.00,,CLR,0.00,VWS V14.01,2013-06-11 02:15:00,
2013-06-10 21:17:00,57.4,55.4,29.77,ENE,69,0.0,0.0,93,0.00,,,0.00,VWS V14.01,2013-06-11 02:17:00,
2013-06-10 21:20:00,57.4,55.4,29.77,ENE,70,0.0,0.0,93,0.00,,CLR,0.00,VWS V14.01,2013-06-11 02:20:00,
2013-06-10 21:22:00,57.4,55.4,29.77,ENE,69,0.0,0.0,93,0.00,,,0.00,VWS V14.01,2013-06-11 02:22:00,
2013-06-10 21:25:00,57.5,55.5,29.77,ENE,70,0.0,0.0,93,0.00,,CLR,0.00,VWS V14.01,2013-06-11 02:25:00,
2013-06-10 21:27:00,57.5,55.5,29.77,ENE,69,0.0,0.0,93,0.00,,,0.00,VWS V14.01,2013-06-11 02:27:00,
2013-06-10 21:30:00,57.5,55.5,29.77,ENE,69,0.0,0.0,93,0.00,,CLR,0.00,VWS V14.01,2013-06-11 02:30:00,
2013-06-10 21:32:00,57.5,55.8,29.78,ENE,70,0.0,0.0,94,0.00,,,0.00,VWS V14.01,2013-06-11 02:32:00,
2013-06-10 21:35:00,57.6,55.9,29.77,ENE,69,0.0,0.0,94,0.00,,CLR,0.00,VWS V14.01,2013-06-11 02:35:00,
2013-06-10 21:37:00,57.6,55.6,29.77,ENE,69,0.0,0.0,93,0.00,,,0.00,VWS V14.01,2013-06-11 02:37:00,
2013-06-10 21:40:00,57.6,55.6,29.77,ENE,69,0.0,0.0,93,0.00,,CLR,0.00,VWS V14.01,2013-06-11 02:40:00,
2013-06-10 21:42:00,57.6,55.9,29.78,ENE,69,0.0,0.0,94,0.00,,,0.00,VWS V14.01,2013-06-11 02:42:00,
2013-06-10 21:45:00,57.6,55.9,29.78,ENE,69,0.0,0.0,94,0.00,,CLR,0.00,VWS V14.01,2013-06-11 02:45:00,
2013-06-10 21:47:00,57.8,56.1,29.78,ENE,69,0.0,0.0,94,0.00,,,0.00,VWS V14.01,2013-06-11 02:47:00,
2013-06-10 21:50:00,57.8,56.1,29.78,ENE,70,0.0,0.0,94,0.00,,CLR,0.00,VWS V14.01,2013-06-11 02:50:00,
2013-06-10 21:52:00,58.0,56.6,29.78,ENE,69,0.0,0.0,95,0.00,,,0.00,VWS V14.01,2013-06-11 02:52:00,
2013-06-10 21:55:00,58.0,56.6,29.78,ENE,69,0.0,0.0,95,0.00,,CLR,0.00,VWS V14.01,2013-06-11 02:55:00,
2013-06-10 21:58:00,58.2,56.8,29.78,ENE,69,0.0,0.0,95,0.00,,,0.00,VWS V14.01,2013-06-11 02:58:00,
2013-06-10 22:00:00,58.1,56.7,29.78,ENE,69,0.0,0.0,95,0.00,,FEW250,0.00,VWS V14.01,2013-06-11 03:00:00,
2013-06-10 22:03:00,58.1,56.4,29.78,ENE,69,0.0,0.0,94,0.00,,FEW004,0.00,VWS V14.01,2013-06-11 03:03:00,
2013-06-10 22:05:00,58.1,56.4,29.78,ENE,69,0.0,0.0,94,0.00,,FEW250,0.00,VWS V14.01,2013-06-11 03:05:00,
2013-06-10 22:08:00,58.0,56.3,29.79,ENE,69,0.0,0.0,94,0.00,,FEW004,0.00,VWS V14.01,2013-06-11 03:08:00,
2013-06-10 22:10:00,57.9,56.2,29.79,ENE,70,0.0,0.0,94,0.00,,FEW250,0.00,VWS V14.01,2013-06-11 03:10:00,
2013-06-10 22:13:00,57.8,56.1,29.79,ENE,69,0.0,0.0,94,0.00,,FEW004,0.00,VWS V14.01,2013-06-11 03:13:00,
2013-06-10 22:15:00,57.8,56.1,29.79,ENE,69,0.0,0.0,94,0.00,,FEW250,0.00,VWS V14.01,2013-06-11 03:15:00,
2013-06-10 22:18:00,57.8,56.1,29.79,ENE,69,0.0,0.0,94,0.00,,FEW004,0.00,VWS V14.01,2013-06-11 03:18:00,
2013-06-10 22:20:00,57.8,56.1,29.79,ENE,69,0.0,0.0,94,0.00,,FEW250,0.00,VWS V14.01,2013-06-11 03:20:00,
2013-06-10 22:23:00,57.9,56.2,29.79,ENE,69,0.0,0.0,94,0.00,,FEW004,0.00,VWS V14.01,2013-06-11 03:23:00,
2013-06-10 22:25:00,57.9,56.2,29.79,ENE,69,0.0,0.0,94,0.00,,FEW250,0.00,VWS V14.01,2013-06-11 03:25:00,
2013-06-10 22:28:00,57.9,56.2,29.79,ENE,69,0.0,0.0,94,0.00,,FEW004,0.00,VWS V14.01,2013-06-11 03:28:00,
2013-06-10 22:30:00,57.9,56.2,29.79,ENE,69,0.0,0.0,94,0.00,,FEW250,0.00,VWS V14.01,2013-06-11 03:30:00,
2013-06-10 22:33:00,57.9,56.2,29.79,ENE,69,0.0,0.0,94,0.00,,FEW004,0.00,VWS V14.01,2013-06-11 03:33:00,
2013-06-10 22:35:00,57.9,56.2,29.79,ENE,69,0.0,0.0,94,0.00,,FEW250,0.00,VWS V14.01,2013-06-11 03:35:00,
2013-06-10 22:38:00,57.9,56.2,29.79,ENE,69,0.0,0.0,94,0.00,,FEW004,0.00,VWS V14.01,2013-06-11 03:38:00,
2013-06-10 22:40:00,57.9,56.2,29.79,ENE,69,0.0,0.0,94,0.00,,FEW250,0.00,VWS V14.01,2013-06-11 03:40:00,
2013-06-10 22:43:00,57.8,55.8,29.79,ENE,69,0.0,0.0,93,0.00,,FEW004,0.00,VWS V14.01,2013-06-11 03:43:00,
2013-06-10 22:45:00,57.8,55.8,29.79,ENE,69,0.0,0.0,93,0.00,,FEW250,0.00,VWS V14.01,2013-06-11 03:45:00,
2013-06-10 22:48:00,57.8,55.8,29.79,ENE,69,0.0,0.0,93,0.00,,FEW004,0.00,VWS V14.01,2013-06-11 03:48:00,
2013-06-10 22:50:00,57.8,55.8,29.79,ENE,69,0.0,0.0,93,0.00,,FEW250,0.00,VWS V14.01,2013-06-11 03:50:00,
2013-06-10 22:53:00,57.8,55.8,29.79,ENE,69,0.0,0.0,93,0.00,,FEW004,0.00,VWS V14.01,2013-06-11 03:53:00,
2013-06-10 22:55:00,57.8,55.8,29.79,ENE,69,0.0,0.0,93,0.00,,FEW250,0.00,VWS V14.01,2013-06-11 03:55:00,
2013-06-10 22:58:00,57.8,55.8,29.79,ENE,69,0.0,0.0,93,0.00,,FEW004,0.00,VWS V14.01,2013-06-11 03:58:00,
2013-06-10 23:00:00,57.8,55.8,29.79,ENE,69,0.0,0.0,93,0.00,,FEW250,0.00,VWS V14.01,2013-06-11 04:00:00,
2013-06-10 23:01:00,57.8,55.8,29.79,ENE,69,0.0,0.0,93,0.00,,FEW004,0.00,VWS V14.01,2013-06-11 04:01:00,
2013-06-10 23:03:00,57.8,55.8,29.80,ENE,69,0.0,0.0,93,0.00,,FEW004,0.00,VWS V14.01,2013-06-11 04:03:00,
2013-06-10 23:04:00,57.8,55.8,29.79,ENE,69,0.0,0.0,93,0.00,,FEW004,0.00,VWS V14.01,2013-06-11 04:04:00,
2013-06-10 23:05:00,57.7,55.7,29.80,ENE,69,0.0,0.0,93,0.00,,FEW004,0.00,VWS V14.01,2013-06-11 04:05:00,
2013-06-10 23:10:00,57.6,55.6,29.80,ENE,69,0.0,0.0,93,0.00,,FEW004,0.00,VWS V14.01,2013-06-11 04:10:00,
2013-06-10 23:15:00,57.5,55.5,29.80,ENE,69,0.0,0.0,93,0.00,,FEW004,0.00,VWS V14.01,2013-06-11 04:15:00,
2013-06-10 23:20:00,57.5,55.8,29.80,ENE,69,0.0,0.0,94,0.00,,FEW004,0.00,VWS V14.01,2013-06-11 04:20:00,
2013-06-10 23:25:00,57.5,55.8,29.80,ENE,69,0.0,0.0,94,0.00,,FEW004,0.00,VWS V14.01,2013-06-11 04:25:00,
2013-06-10 23:27:00,57.4,55.7,29.80,ENE,69,0.0,0.0,94,0.00,,FEW004,0.00,VWS V14.01,2013-06-11 04:27:00,
2013-06-10 23:30:00,57.4,55.7,29.80,ENE,69,0.0,0.0,94,0.00,,FEW250,0.00,VWS V14.01,2013-06-11 04:30:00,
2013-06-10 23:32:00,57.3,55.6,29.81,ENE,69,0.0,0.0,94,0.00,,FEW004,0.00,VWS V14.01,2013-06-11 04:32:00,
2013-06-10 23:35:00,57.3,55.6,29.81,ENE,69,0.0,0.0,94,0.00,,FEW250,0.00,VWS V14.01,2013-06-11 04:35:00,
2013-06-10 23:37:00,57.3,55.6,29.80,ENE,69,0.0,0.0,94,0.00,,FEW004,0.00,VWS V14.01,2013-06-11 04:37:00,
2013-06-10 23:40:00,57.3,55.6,29.80,ENE,69,0.0,0.0,94,0.00,,FEW250,0.00,VWS V14.01,2013-06-11 04:40:00,
2013-06-10 23:42:00,57.3,55.6,29.80,ENE,69,0.0,0.0,94,0.00,,FEW004,0.00,VWS V14.01,2013-06-11 04:42:00,
2013-06-10 23:45:00,57.3,55.6,29.80,ENE,69,0.0,0.0,94,0.00,,FEW250,0.00,VWS V14.01,2013-06-11 04:45:00,
2013-06-10 23:48:00,57.4,55.7,29.80,ENE,69,0.0,0.0,94,0.00,,FEW004,0.00,VWS V14.01,2013-06-11 04:48:00,
2013-06-10 23:50:00,57.4,55.7,29.80,ENE,69,0.0,0.0,94,0.00,,FEW250,0.00,VWS V14.01,2013-06-11 04:50:00,
2013-06-10 23:53:00,57.3,55.6,29.80,ENE,69,0.0,0.0,94,0.00,,FEW004,0.00,VWS V14.01,2013-06-11 04:53:00,
2013-06-10 23:55:00,57.3,55.6,29.80,ENE,69,0.0,0.0,94,0.00,,FEW250,0.00,VWS V14.01,2013-06-11 04:55:00,
2013-06-10 23:58:00,57.3,55.6,29.80,ENE,69,0.0,0.0,94,0.00,,FEW004,0.00,VWS V14.01,2013-06-11 04:58:00,